[Date Prev][Date Next][Thread Prev][Thread Next] - [Date Index][Thread Index][Author Index]
2 Line ISS Keps 4-23
- Subject: [sarex] 2 Line ISS Keps 4-23
- From: "Dave Larsen PhD" <doc@xxxxxxxxxxx>
- Date: Fri, 23 Apr 2004 03:45:43 -0700
ISS
1 25544U 98067A 04114.42918142 .00027117 00000-0 23693-3 0 6330
2 25544 51.6277 244.8515 0011032 62.0517 342.0949 15.68661546309727
----
Via the sarex mailing list at AMSAT.ORG courtesy of AMSAT-NA.
To unsubscribe, send "unsubscribe sarex" to Majordomo@amsat.org
AMSAT Home